カタログに戻る

STARLINK-4007

運用中通信VLEO
NORAD 52707·PAYLOAD·🇺🇸 United States

打ち上げ May 18, 2022 から Cape Canaveral Space Force Station

Loading…

次のパス (今後24時間)

TLE

最新Source: CelesTrak SupGP

元期: Sep 14, 2026, 14:37 UTC

1 52707C 22053BD  26257.60951389  .00008263  00000+0  45752-3 0  2577
2 52707  53.2153   3.5558 0001484  52.4285 262.5844 15.13325414    12

AllMySatでSTARLINK-4007をリアルタイム追跡

Download on the App Store